BM6HML-1 Weather Reports


Display with metric or nautical units.
time (UTC)temp
F
wind
direction
speed
MPH
gust
MPH
rain 1hr
in
rain 24hr
in
rain mn
in
humidity
%
barometer
mb
20260504081420 91 0.0 0.0 0.00 0.00 0.00 65 1011.2
20260504045420 90 0.0 0.0 0.00 0.00 0.00 70 1011.6
20260504043419 90 0.0 0.0 0.00 0.00 0.00 71 1011.7
20260504041420 90 0.0 0.0 0.00 0.00 0.00 71 1011.6
20260504035420 90 0.0 0.0 0.00 0.00 0.00 72 1012.0
20260504033419 90 0.0 0.0 0.00 0.00 0.00 72 1012.2
20260504031420 90 0.0 0.0 0.00 0.00 0.00 72 1012.3
20260504025419 90 0.0 0.0 0.00 0.00 0.00 72 1012.3
20260504023419 90 0.0 0.0 0.00 0.00 0.00 73 1012.3
20260504021420 90 0.0 0.0 0.00 0.00 0.00 73 1012.2
20260504015419 90 0.0 0.0 0.00 0.00 0.00 74 1012.0
20260504013420 90 0.0 0.0 0.00 0.00 0.00 75 1012.4
20260504011420 90 0.0 0.0 0.00 0.00 0.00 76 1012.3
20260504005419 90 0.0 0.0 0.00 0.00 0.00 76 1011.8
20260504003420 90 0.0 0.0 0.00 0.00 0.00 74 1011.8
20260504001419 90 0.0 0.0 0.00 0.00 0.00 74 1011.7
20260503235420 90 0.0 0.0 0.00 0.00 0.00 73 1011.4
20260503233420 90 0.0 0.0 0.00 0.00 0.00 76 1011.3
20260503231419 90 0.0 0.0 0.00 0.00 0.00 76 1011.4
20260503225420 90 0.0 0.0 0.00 0.00 0.00 75 1011.4
20260503223419 90 0.0 0.0 0.00 0.00 0.00 75 1011.1
20260503221420 90 0.0 0.0 0.00 0.00 0.00 75 1011.1
20260503215419 90 0.0 0.0 0.00 0.00 0.00 75 1011.1
20260503213420 90 0.0 0.0 0.00 0.00 0.00 75 1011.0
20260503211420 90 0.0 0.0 0.00 0.00 0.00 76 1011.1
20260503205419 90 0.0 0.0 0.00 0.00 0.00 75 1011.0
20260503203420 90 0.0 0.0 0.00 0.00 0.00 76 1011.0
20260503201419 90 0.0 0.0 0.00 0.00 0.00 76 1010.9
20260503195420 90 0.0 0.0 0.00 0.00 0.00 76 1010.9
20260503193420 90 0.0 0.0 0.00 0.00 0.00 77 1010.5
20260503191419 90 0.0 0.0 0.00 0.00 0.00 76 1010.5
20260503185420 90 0.0 0.0 0.00 0.00 0.00 76 1010.7
20260503183419 90 0.0 0.0 0.00 0.00 0.00 77 1010.6
20260503181420 90 0.0 0.0 0.00 0.00 0.00 77 1010.5
20260503175420 90 0.0 0.0 0.00 0.00 0.00 78 1010.7
20260503173419 90 0.0 0.0 0.00 0.00 0.00 78 1010.7
20260503171420 90 0.0 0.0 0.00 0.00 0.00 78 1010.9
20260503131419 86 0.0 0.0 0.00 0.00 0.00 87 1009.6